FW3223 Weather Reports


time (UTC)temp
C
wind
direction
speed
KPH
gust
KPH
rain 1hr
cm
rain 24hr
cm
rain mn
cm
humidity
%
barometer
mb
20190919144650 18 275 16.1 25.7 0.00 0.00 0.00 72 1016.8
20190919143037 19 248 4.8 16.1 0.00 0.00 0.00 70 1016.7
20190919141611 20 261 11.3 19.3 0.00 0.00 0.00 68 1016.8
20190919140006 22 250 4.8 20.9 0.00 0.00 0.00 60 1016.7
20190919134551 21 279 9.7 19.3 0.00 0.00 0.00 62 1016.8
20190919133011 20 275 12.9 20.9 0.00 0.00 0.00 66 1017.4
20190919131649 20 257 12.9 22.5 0.00 0.00 0.00 69 1017.5
20190919124603 19 288 11.3 20.9 0.00 0.00 0.00 71 1017.4
20190919123249 18 270 11.3 29.0 0.00 0.00 0.00 71 1017.5
20190919121531 20 257 12.9 20.9 0.00 0.00 0.00 68 1017.7
20190919120117 20 246 11.3 20.9 0.00 0.00 0.00 69 1017.8
20190919114526 20 245 1.6 8.0 0.00 0.00 0.00 72 1017.9
20190919113131 18 232 11.3 17.7 0.00 0.00 0.00 72 1018.2
20190919111537 18 239 11.3 16.1 0.00 0.00 0.00 73 1018.3
20190919110112 18 233 8.0 12.9 0.00 0.00 0.00 74 1018.2
20190919103110 19 234 4.8 8.0 0.00 0.00 0.00 73 1018.1
20190919100042 18 237 4.8 11.3 0.00 0.00 0.00 71 1018.4
20190919094652 18 296 4.8 11.3 0.00 0.00 0.00 72 1018.4
20190919093040 18 273 4.8 11.3 0.00 0.00 0.00 73 1018.5
20190919091608 18 243 9.7 17.7 0.00 0.00 0.00 70 1018.4
20190919090016 20 327 3.2 8.0 0.00 0.00 0.00 63 1017.9
20190919084717 20 61 3.2 14.5 0.00 0.00 0.00 65 1017.8
20190919083010 19 49 3.2 14.5 0.00 0.00 0.00 66 1017.6
20190919081556 19 56 3.2 9.7 0.00 0.00 0.00 67 1017.7
20190919074601 18 51 4.8 12.9 0.00 0.00 0.00 70 1017.6
20190919073211 18 47 4.8 8.0 0.00 0.00 0.00 71 1017.5
20190919071554 17 343 3.2 9.7 0.00 0.00 0.00 73 1017.6
20190919070138 17 5 0.0 6.4 0.00 0.00 0.00 74 1017.5
20190919064518 17 304 0.0 3.2 0.00 0.00 0.00 75 1017.5
20190919063139 17 297 0.0 3.2 0.00 0.00 0.00 75 1017.4
20190919061513 17 333 0.0 0.0 0.00 0.00 0.00 75 1017.1
20190919060101 17 333 0.0 0.0 0.00 0.00 0.00 75 1017.1
20190919054702 17 333 0.0 6.4 0.00 0.00 0.00 75 1016.9
20190919053050 17 296 1.6 6.4 0.00 0.00 0.00 75 1016.9
20190919051641 17 287 1.6 9.7 0.00 0.00 0.00 76 1016.9
20190919050027 17 305 1.6 6.4 0.00 0.00 0.00 75 1017.1
20190919044650 17 293 0.0 8.0 0.00 0.00 0.00 75 1017.0
20190919043117 17 284 0.0 4.8 0.00 0.00 0.00 75 1016.9
20190919041608 17 304 0.0 3.2 0.00 0.00 0.00 75 1017.0
20190919034704 17 303 3.2 4.8 0.00 0.00 0.00 75 1017.1
20190919031600 17 273 3.2 8.0 0.00 0.00 0.00 75 1017.3
20190919024557 18 282 1.6 6.4 0.00 0.00 0.00 72 1017.4
20190919023208 18 279 1.6 6.4 0.00 0.00 0.00 71 1017.4
20190919021558 18 5 0.0 6.4 0.00 0.00 0.00 71 1017.5
20190919020120 18 298 0.0 0.0 0.00 0.00 0.00 72 1017.7
20190919014530 18 298 0.0 6.4 0.00 0.00 0.00 72 1017.7
20190919013105 18 311 1.6 4.8 0.00 0.00 0.00 70 1017.8
20190919011523 18 311 1.6 6.4 0.00 0.00 0.00 69 1018.1
20190919010245 18 29 1.6 9.7 0.00 0.00 0.00 70 1018.3
20190919004650 18 329 0.0 6.4 0.00 0.00 0.00 72 1018.3
20190919003049 18 287 1.6 6.4 0.00 0.00 0.00 73 1018.3
20190919001710 18 264 1.6 9.7 0.00 0.00 0.00 73 1018.3
20190919000028 18 292 3.2 6.4 0.00 0.00 0.00 74 1018.4
20190918234652 17 298 3.2 8.0 0.00 0.00 0.00 74 1018.4
20190918233051 17 265 1.6 9.7 0.00 0.00 0.00 74 1018.5
20190918231600 17 269 3.2 11.3 0.00 0.00 0.00 73 1018.5
20190918224600 18 291 3.2 9.7 0.00 0.00 0.00 70 1018.4
20190918223218 18 309 1.6 4.8 0.00 0.00 0.00 67 1018.4
20190918221602 18 312 3.2 8.0 0.00 0.00 0.00 68 1018.4
20190918220327 18 319 3.2 8.0 0.00 0.00 0.00 68 1018.3
20190918214556 18 39 0.0 8.0 0.00 0.00 0.00 69 1018.4
20190918213129 18 302 3.2 12.9 0.00 0.00 0.00 68 1018.4
20190918211607 18 329 0.0 8.0 0.00 0.00 0.00 69 1018.2
20190918210106 18 333 3.2 8.0 0.00 0.00 0.00 69 1018.2
20190918204513 18 260 1.6 6.4 0.00 0.00 0.00 67 1018.1
20190918203132 18 314 3.2 9.7 0.00 0.00 0.00 67 1018.1
20190918201507 18 335 3.2 12.9 0.00 0.00 0.00 67 1018.1
20190918200039 18 321 6.4 16.1 0.00 0.00 0.00 67 1018.0
20190918194631 18 335 3.2 17.7 0.00 0.00 0.00 66 1017.9
20190918193030 19 355 4.8 9.7 0.00 0.00 0.00 65 1017.9
20190918191625 19 325 4.8 16.1 0.00 0.00 0.00 65 1018.0
20190918190015 19 326 6.4 17.7 0.00 0.00 0.00 64 1018.0
20190918184638 20 323 8.0 16.1 0.00 0.00 0.00 63 1017.6
20190918183015 20 322 6.4 14.5 0.00 0.00 0.00 62 1017.6
20190918181601 20 309 6.4 14.5 0.00 0.00 0.00 61 1017.7
20190918174607 20 304 9.7 19.3 0.00 0.00 0.00 62 1017.5
20190918173201 20 255 6.4 17.7 0.00 0.00 0.00 63 1017.4
20190918171607 20 282 9.7 16.1 0.00 0.00 0.00 62 1017.4
20190918170145 20 297 6.4 14.5 0.00 0.00 0.00 65 1017.3
20190918164537 20 250 9.7 17.7 0.00 0.00 0.00 65 1017.3
20190918163107 20 257 11.3 19.3 0.00 0.00 0.00 64 1017.2
20190918161533 20 252 14.5 22.5 0.00 0.00 0.00 64 1017.1
20190918160120 20 258 17.7 24.1 0.00 0.00 0.00 65 1017.2
20190918154629 20 252 16.1 20.9 0.00 0.00 0.00 65 1017.1
20190918153155 20 254 16.1 20.9 0.00 0.00 0.00 64 1017.1
20190918151632 20 252 14.5 20.9 0.00 0.00 0.00 63 1017.2
20190918150025 21 262 11.3 19.3 0.00 0.00 0.00 57 1017.2